Погода Улан-Удэ

Погода Улан-Удэ : погода сейчас, прогноз погоды и архив. Всё, что Вы хотите узнать о погоде Улан-Удэ!

Поиск расширенной информации на нашем сайте:

Другие новости

Новости СМИ2

Главная страница сайта

Новости сайта

03.07.2017

Напоминаем, что на нашем специализированном сайте Метеоцентр.Азия вы можете получить высокодетализированные автоматические прогнозы погоды по пунктам России, СНГ и мира в авиационном формате (включающие направление и скорость ветра, видимость, явления погоды, количество и форму облачности, нижнюю и верхнюю границу облачности).


Погода Улан-Удэ - сегодня

Время (UTC), дата Ветер
(°,м/с) 
Видим.   Явления Облачность Т
(°С)
Тd
(°С)
f(%) Тe
(°С)
Pmin
(гПа)
dP
(гПа)
Po
(мм)
O2
(г/м3)
Тmin Tmax R s Состояние
почвы
18 14.02.18 310 (СЗ) 20000 м  слаб. ливневой снег  10/9 600 м кучево-дожд., средняя 
[Cb cap|Ac und]
-13.6 -17.9 70 -16  1024.6  1.5  719  306           
21 14.02.18 310 (СЗ) 20000 м  слаб. ливневой снег  10/6 600 м кучево-дожд., средняя, верхняя 
[Cb cap|Ac trans|Ci sp]
-14.6 -18.3 73 -17  1026.2  1.2  719  308           
00 15.02.18 300 (СЗ) 20000 м  {ливн. осадки}  4/0 средняя, верхняя 
[Ac trans|Ci fib]
-16.8 -22.3 62 -21  1028.5  1.6  721  311  -19.9    0.2  22  равномерный
сухой снег
100% 
03 15.02.18 240 (ЮЗ) 20000 м    1/0 средняя 
[Ac trans]
-14.5 -22.6 50 -18  1029.3  1.4  722  309           
06 15.02.18 210 (ЮЗ) 20000 м    6/0 средняя 
[Ac trans]
-12.6 -21.5 47 -15  1028.6  -0.2  722  306           
09 15.02.18 330 (СЗ) 20000 м    ясно 
-12.3 -21.9 45 -14  1028.9  0.4  722  306           
12 15.02.18 190 (Ю) 20000 м    ясно 
-17.7 -23.6 60 -18  1031  0.6  722  313    -11.6       
15 15.02.18 280 (З) 20000 м  дым  ясно 
-23.2 -27 71 -24  1032.9  0.3  722  320           
18 15.02.18 090 (В) 20000 м  дым  ясно 
-24.7 -28.1 73 -28  1032.3  -0.9  722  321           
21 15.02.18 080 (В) 20000 м  дым  ясно 
-27.5 -31.1 71 -33  1032.3  -0.8  721  325           
00 16.02.18 100 (В) 10 км  дым  ясно 
-29.5 -33.2 70 -30  1033.2  0.3  721  328  -29.5      22  равномерный
сухой снег
100% 
06 16.02.18 250 (З) 10 км  дым  8/0 верхняя 
[Cs]
-19.7 -26.9 53 -20  1029.5  -1.2  721  315           
09 16.02.18 240 (ЮЗ) 10 км  дым  6/0 верхняя 
[Cs]
-18.1 -25.1 54 -18  1028.2  -0.7  720  312           
12 16.02.18 290 (З) 10 км  дым  10/0 средняя, верхняя 
[As trans|Cs]
-21.8 -26.5 66 -25  1030.4  721  317    -17.6       
15 16.02.18 280 (З) 20000 м  дым  10/0 верхняя 
[Ci fib]
-24.5 -28 73 -28  1032.3  722  321           
18 16.02.18 250 (З) 20000 м  дым  8/0 верхняя 
[Ci fib]
-26.6 -29.8 74 -27  1033.4  0.5  722  324           
21 16.02.18 300 (СЗ) 20000 м  дым  6/0 верхняя 
[Ci fib]
-27.6 -31.1 72 -31  1034.6  0.8  723  326           
00 17.02.18 270 (З) 20000 м  дым  10/0 средняя, верхняя 
[Ac trans|Ci sp]
-26.9 -30.4 72 -28  1035.5  724  325  -28.2      22  равномерный
сухой снег
100% 
03 17.02.18 260 (З) 10 км  слаб. снег  10/0 средняя 
[As op]
-21.1 -25.3 69 -24  1034.9  724  318           
06 17.02.18 280 (З) 20000 м  слаб. снег  10/0 средняя, верхняя 
[As op|Ci sp]
-16.4 -21.8 63 -19  1033.7  0.1  724  312           
09 17.02.18 230 (ЮЗ) 20000 м  слаб. снег  10/0 средняя, верхняя 
[As op|Ci sp]
-14.5 -21.2 57 -15  1033.9  0.6  725  310           
12 17.02.18 260 (З) 20000 м  слаб. снег  10/6 1000 м средняя, верхняя 
[Sc|As op|Ci sp]
-16.3 -21.3 65 -16  1035.5  726  312    -14  0.2     
15 17.02.18 310 (СЗ) 20000 м  слаб. снег  10/4 1000 м средняя 
[Sc|As op]
-14.9 -19.6 67 -15  1036.3  1.1  726  311           
18 17.02.18 250 (З) н/о    н/о 
-17.8 -22 70 -18  1037.4  0.3  727  315           
21 17.02.18 310 (СЗ) 20000 м  слаб. снег  10/5 1000 м средняя 
[Sc|As op]
-19.9 -23.4 74 -20  1038.3  0.3  727  318           
Время (UTC), дата Ветер
(°,м/с) 
Видим.   Явления Облачность Т
(°С)
Тd
(°С)
f(%) Тe
(°С)
Pmin
(гПа)
dP
(гПа)
Po
(мм)
O2
(г/м3)
Тmin Tmax R s Состояние
почвы

Для получения пояснительной информации подведите курсор к названию столбца.

ПОГОДА Улан-Удэ - архив

Всё, что Вы хотите узнать о погоде Улан-Удэ - удобно и подробно!

Выберите нужную дату (начиная с 1 января 2015* года) и нажмите кнопку "Найти".
Будут отображены архивные сводки погоды по пункту Улан-Удэ, начиная с указанной даты.


Отображать данные в формате CSV (для использования в таблицах Excel)


Внимание! Наш архив погоды предназначен исключительно для личного некоммерческого использования в познавательных целях. Если Вам необходимы официальные справки о состоянии погоды (для производственных, юридических, коммерческих и т.п. целей), обращайтесь в органы Росгидромета.

*Примечание: данная дата относится к архиву по метеостанциям СССР (Россия, СНГ, Балтия).
Архив по метеостанциям Зарубежной Европы и Азии (кроме Китая) хранится 10 дней, по другим регионам земного шара (Китай, Африка, Америка, Австралия, Океания) - 1 день.

Улан-Удэ - район местоположения метеостанции


Название, широта, долгота, высота метеостанции:
Улан-Удэ (город) 51.8°ш. 107.5°д. 530 м над ур. моря [Российская Федерация]

Дополнительная информация

В oтличие oт бoльшинства пoгoдных сайтoв мы публикуем пoдрoбную метеoинфoрмацию в детальнoм прoфессиoнальнoм фoрмате.

Характеристики температуры и влажнoсти вoздуха измеряются на высoте 2 м в тени вдали oт зданий и деревьев.
Скoрoсть ветра измеряется на высoте 10 м (на урoвне рoста челoвека скoрoсть ветра ниже в 1.5-2 раза). Если метеoстанция нахoдится в гoрoде или в лесу, тo скoрoсть ветра занижена на 2-4 м/с пo сравнению с oткрытым местoм. Скoрoсть ветра над акватoриями крупных рек и oзёр, а также на вершинах хoлмoв на 2-5 м/с выше, чем в oбычных услoвиях.
Атмoсфернoе давление в разных тoчках местнoсти мoжет значительнo oтличаться oт давления на метеoстанции, в зависимoсти oт услoвий рельефа (при пoдъёме на 10 м давление пoнижается примернo на 1 мм рт.ст.).